Regional Weather Roundup
Issued by NWS

Home | Current Version | Previous Version | Graphics & Text | Print | Product List | Glossary On
Versions: 1 2 3 4 5 6 7 8 9 10 11 12 13 14 15 16 17 18 19 20 21 22 23 24 25 26 27 28 29 30 31 32 33 34 35 36 37 38 39 40 41 42 43 44 45 46 47 48 49 50
000
ASUS43 KLMK 272310
RWRKY
KENTUCKY REGIONAL WEATHER ROUNDUP
NATIONAL WEATHER SERVICE LOUISVILLE KY
700 PM EDT THU AUG 27 2015

NOTE "FAIR" INDICATES FEW OR NO CLOUDS BELOW 12,000 FEET
WITH NO SIGNIFICANT WEATHER AND/OR OBSTRUCTIONS TO VISIBILITY.

KYZ001>023-026-027-061>063-070>075-280000-
WESTERN AND SOUTH CENTRAL KENTUCKY

CITY           SKY/WX    TMP DP  RH WIND       PRES   REMARKS
PADUCAH        MOSUNNY   80  59  48 NE6       30.08F
HENDERSON      SUNNY     79  57  47 NE5       30.08S
OWENSBORO      SUNNY     79  58  48 NE5       30.10F
HOPKINSVILLE   SUNNY     79  58  47 N10       30.09S
BOWLING GREEN  MOSUNNY   80  55  42 N8        30.10R
GLASGOW        PTSUNNY   77  54  45 NE6       30.11S
$$

KYZ024-025-028>034-038-045-046-053-280000-
NORTH CENTRAL KENTUCKY

CITY           SKY/WX    TMP DP  RH WIND       PRES   REMARKS
LOUISVILLE/SDF MOSUNNY   78  54  43 E7        30.11F
LOUISVILLE/LOU SUNNY     78  54  43 E7        30.12F
FORT KNOX      SUNNY     76  56  49 NE6       30.11S
$$

KYZ035>037-039>044-047>052-055>060-089>105-280000-
NORTHEAST KENTUCKY

CITY           SKY/WX    TMP DP  RH WIND       PRES   REMARKS
LEXINGTON      CLOUDY    76  54  46 N9        30.14S
COVINGTON      MOSUNNY   75  54  47 NE6       30.14F
FRANKFORT      CLOUDY    74  56  53 NE5       30.13S
$$

KYZ054-064>069-076>088-106>120-280000-
SOUTHEAST KENTUCKY

CITY           SKY/WX    TMP DP  RH WIND       PRES   REMARKS
JACKSON        MOSUNNY   71  57  61 CALM      30.14S
LONDON         SUNNY     77  53  43 N7        30.11S
SOMERSET       MOSUNNY   73  54  49 NE6       30.12S
MIDDLESBORO    SUNNY     77  61  57 N5        30.10R
MONTICELLO     CLEAR     78  58  50 N7        30.13S
$$




USA.gov is the U.S. government's official web portal to all federal, state and local government web resources and services.